Starlink 11583

operational
NORAD ID: 62991 Int'l Des: 2025-031 Owner: SPXS Country: US Constellation: starlink
LEOCIRCULAR

Starlink 11583について

説明を読み込み中...

リアルタイム位置

3D地球を読み込み中...

次回通過

高度履歴

Altitude vs Time

uPlot chart will show altitude changes over time

軌道要素

1 62991U 25031L 25350.86676994 .00206237 00000-0 15585-2 0 9994
2 62991 42.9987 140.9422 0003496 249.0616 110.9878 15.71029707 49725
Epoch: Dec 16, 2025 • Age: 16 hours

現在のステータス

高度 362.3 km
速度 7.69 km/s
衛星直下点 -33.33°S, 79.26°E
打ち上げ日 Feb 11, 2025
運用期間 0.8 years
タイプ internet

技術仕様

分類 Payload
質量 960.00 kg
乾燥質量 910.00 kg
総質量 960.00 kg
長さ 0.30 m
直径 4.10 m
スパン 29.00 m
形状 Box + pan
製造者 SPXS
バスタイプ Starlink V2MD
フェーズステータス In Orbit
所有者/国 SPXS/US

大規模コンステレーション

Loading constellations...